Retour au catalogue

STARLINK-30527

ActifCommunicationsVLEO
NORAD 58007·PAYLOAD·🇺🇸 United States

Lancé Oct 5, 2023 depuis Cape Canaveral Space Force Station

Loading…

Prochains Passages (prochaines 24 heures)

TLE

FraisSource: CelesTrak SupGP

Époque: Sep 14, 2026, 20:55 UTC

1 58007C 23153S   26257.87201389  .00033749  00000+0  12222-2 0  2577
2 58007  43.0001 209.9801 0001369 263.4294  59.6814 15.27566496    13

Suivez STARLINK-30527 en temps réel avec AllMySat

Download on the App Store